Weather History for Belen, NM

Change the Weather History Date:

Saturday, November 3, 2012

  Actual Average (KABQ) Record (KABQ)
Temperature  
Mean Temperature 56 °F 50 °F  
Max Temperature 69 °F 62 °F 80 °F (1918)
Min Temperature 42 °F 39 °F 19 °F (1991)
Degree Days  
Heating Degree Days 10 15  
Month to date heating degree days 43  
Since 1 July heating degree days 309  
Cooling Degree Days 0 0  
Month to date cooling degree days 0  
Year to date cooling degree days 1322  
Growing Degree Days 6 (Base 50)    
Moisture  
Dew Point 21 °F    
Average Humidity 27    
Maximum Humidity 36    
Minimum Humidity 18    
Precipitation  
Precipitation 0.00 in 0.02 in 0.41 in (1946)
Month to date precipitation 0.06  
Year to date precipitation 8.44  
Snow  
Snow 0.00 in - - ()
Month to date snowfall  
Since 1 July snowfall  
Since 1 September snowfall  
Snow Depth -    
Sea Level Pressure  
Sea Level Pressure 30.17 in    
Wind  
Wind Speed 6 mph (NW)    
Max Wind Speed 13 mph    
Max Gust Speed -    
Visibility 10 miles    
Events      
T = Trace of Precipitation, MM = Missing Value Source: NWS Daily Summary

Daily Weather History Graph

Daily Weather History Graph

Search for Another Location

Airport:

Trip Planner

Search our weather history database for the weather conditions in past years. The results will help you decide how hot, cold, wet, or windy it might be!

Date:

Astronomy

Nov. 03, 2012 Rise Set
Actual Time 7:30 AM MDT 6:11 PM MDT
Civil Twilight 7:03 AM MDT 6:37 PM MDT
Nautical Twilight 6:34 AM MDT 7:07 PM MDT
Astronomical Twilight 6:04 AM MDT 7:36 PM MDT
Moon 9:58 PM MDT (11/3) 11:32 AM MDT (11/3)
Length of Visible Light 11h 33m
Length of Day
10h 41m
Waning Gibbous, 80% of the Moon is Illuminated
Nov 3
Waning Gibbous
Nov 6
Last Quarter
Nov 13
New
Nov 20
First Quarter
Nov 28
Full

Hourly Weather History & Observations

Time (MDT) Temp. Windchill Dew Point Humidity Pressure Visibility Wind Dir Wind Speed Gust Speed Precip Events Conditions
12:15 AM 53.1 °F - 18.9 °F 26% 30.10 in 10.0 mi WNW 3.5 mph - N/A   Mostly Cloudy
12:35 AM 52.7 °F - 18.3 °F 26% 30.10 in 10.0 mi NW 8.1 mph - N/A   Overcast
12:55 AM 51.6 °F - 18.0 °F 27% 30.10 in 10.0 mi NW 8.1 mph - N/A   Overcast
1:15 AM 51.8 °F - 18.0 °F 26% 30.10 in 10.0 mi NW 9.2 mph - N/A   Overcast
1:35 AM 53.2 °F - 18.5 °F 26% 30.10 in 10.0 mi WNW 4.6 mph - N/A   Overcast
1:55 AM 49.5 °F - 18.0 °F 29% 30.11 in 10.0 mi NW 5.8 mph - N/A   Overcast
2:15 AM 49.6 °F - 17.6 °F 28% 30.11 in 10.0 mi NW 8.1 mph - N/A   Overcast
2:35 AM 50.5 °F - 17.4 °F 27% 30.11 in 10.0 mi NNW 9.2 mph - N/A   Overcast
2:55 AM 50.5 °F - 16.7 °F 26% 30.11 in 10.0 mi NNW 10.4 mph - N/A   Overcast
3:15 AM 48.2 °F - 16.3 °F 28% 30.12 in 10.0 mi WNW 5.8 mph - N/A   Scattered Clouds
3:35 AM 44.2 °F 41.0 °F 15.4 °F 31% 30.12 in 10.0 mi WNW 5.8 mph - N/A   Clear
3:55 AM 43.7 °F 39.7 °F 15.4 °F 32% 30.12 in 10.0 mi WNW 6.9 mph - N/A   Clear
4:15 AM 45.1 °F 40.8 °F 15.8 °F 31% 30.13 in 10.0 mi WNW 8.1 mph - N/A   Scattered Clouds
4:35 AM 44.8 °F 39.9 °F 16.0 °F 31% 30.14 in 10.0 mi West 9.2 mph - N/A   Scattered Clouds
4:55 AM 44.6 °F 39.7 °F 15.8 °F 31% 30.15 in 10.0 mi WSW 9.2 mph - N/A   Scattered Clouds
5:15 AM 44.6 °F 40.7 °F 16.3 °F 32% 30.15 in 10.0 mi SW 6.9 mph - N/A   Scattered Clouds
5:35 AM 43.7 °F 38.1 °F 15.8 °F 33% 30.15 in 10.0 mi West 10.4 mph - N/A   Clear
5:55 AM 45.1 °F 40.8 °F 15.6 °F 31% 30.15 in 10.0 mi WNW 8.1 mph - N/A   Clear
6:15 AM 42.8 °F 39.3 °F 14.7 °F 32% 30.16 in 10.0 mi West 5.8 mph - N/A   Clear
6:35 AM 42.4 °F 38.8 °F 14.7 °F 33% 30.17 in 10.0 mi SW 5.8 mph - N/A   Clear
6:55 AM 42.3 °F 37.3 °F 14.9 °F 33% 30.18 in 10.0 mi WSW 8.1 mph - N/A   Clear
7:15 AM 44.4 °F 39.0 °F 16.7 °F 33% 30.18 in 10.0 mi West 10.4 mph - N/A   Clear
7:35 AM 45.9 °F 41.2 °F 18.1 °F 33% 30.19 in 10.0 mi West 9.2 mph - N/A   Clear
7:55 AM 42.8 °F 39.3 °F 17.4 °F 36% 30.20 in 10.0 mi West 5.8 mph - N/A   Clear
8:15 AM 49.1 °F - 19.2 °F 31% 30.21 in 10.0 mi WNW 4.6 mph - N/A   Clear
8:35 AM 48.6 °F - 18.1 °F 30% 30.21 in 10.0 mi WNW 5.8 mph - N/A   Clear
8:55 AM 50.2 °F - 18.7 °F 29% 30.22 in 10.0 mi WNW 9.2 mph - N/A   Clear
9:15 AM 51.4 °F - 19.4 °F 28% 30.22 in 10.0 mi WNW 9.2 mph - N/A   Clear
9:35 AM 52.2 °F - 21.2 °F 30% 30.22 in 10.0 mi North 4.6 mph - N/A   Clear
9:55 AM 52.7 °F - 20.3 °F 28% 30.23 in 10.0 mi NW 11.5 mph - N/A   Clear
10:15 AM 55.9 °F - 22.3 °F 27% 30.23 in 10.0 mi NW 11.5 mph - N/A   Clear
10:35 AM 57.2 °F - 23.7 °F 28% 30.23 in 10.0 mi NW 12.7 mph - N/A   Clear
10:55 AM 59.2 °F - 23.5 °F 25% 30.23 in 10.0 mi NW 9.2 mph - N/A   Clear
11:15 AM 60.3 °F - 24.3 °F 25% 30.23 in 10.0 mi NW 6.9 mph - N/A   Clear
11:35 AM 61.0 °F - 23.9 °F 24% 30.23 in 10.0 mi NNW 5.8 mph - N/A   Clear
11:55 AM 61.7 °F - 23.5 °F 23% 30.23 in 10.0 mi NW 4.6 mph - N/A   Clear
12:15 PM 63.7 °F - 23.5 °F 22% 30.22 in 10.0 mi North 5.8 mph - N/A   Scattered Clouds
12:35 PM 63.9 °F - 23.9 °F 22% 30.22 in 10.0 mi NNW 3.5 mph - N/A   Mostly Cloudy
12:55 PM 63.9 °F - 23.5 °F 22% 30.21 in 10.0 mi ENE 4.6 mph - N/A   Scattered Clouds
1:15 PM 65.1 °F - 23.5 °F 21% 30.20 in 10.0 mi Calm Calm - N/A   Scattered Clouds
1:35 PM 66.2 °F - 23.7 °F 20% 30.19 in 10.0 mi North 4.6 mph - N/A   Clear
1:55 PM 66.0 °F - 23.4 °F 20% 30.18 in 10.0 mi Calm Calm - N/A   Clear
2:15 PM 66.6 °F - 23.5 °F 20% 30.18 in 10.0 mi NNE 3.5 mph - N/A   Clear
2:35 PM 67.1 °F - 23.5 °F 19% 30.17 in 10.0 mi East 5.8 mph - N/A   Clear
2:55 PM 67.1 °F - 23.4 °F 19% 30.16 in 10.0 mi Calm Calm - N/A   Clear
3:15 PM 68.4 °F - 23.2 °F 18% 30.15 in 10.0 mi East 4.6 mph - N/A   Clear
3:35 PM 68.4 °F - 23.0 °F 18% 30.15 in 10.0 mi ENE 4.6 mph - N/A   Clear
3:55 PM 68.7 °F - 23.0 °F 18% 30.15 in 10.0 mi ENE 5.8 mph - N/A   Clear
4:15 PM 68.5 °F - 23.7 °F 18% 30.15 in 10.0 mi Calm Calm - N/A   Clear
4:35 PM 69.1 °F - 23.7 °F 18% 30.15 in 10.0 mi East 3.5 mph - N/A   Clear
4:55 PM 68.5 °F - 24.1 °F 19% 30.15 in 10.0 mi NNE 3.5 mph - N/A   Clear
5:15 PM 68.2 °F - 24.4 °F 19% 30.15 in 10.0 mi East 3.5 mph - N/A   Clear
5:35 PM 67.1 °F - 24.4 °F 20% 30.15 in 10.0 mi ENE 3.5 mph - N/A   Clear
5:55 PM 65.7 °F - 24.3 °F 21% 30.15 in 10.0 mi Calm Calm - N/A   Clear
6:15 PM 64.4 °F - 24.8 °F 22% 30.15 in 10.0 mi Calm Calm - N/A   Clear
6:35 PM 62.4 °F - 24.8 °F 24% 30.16 in 7.0 mi North 4.6 mph - N/A   Clear
6:55 PM 60.8 °F - 24.4 °F 25% 30.16 in 10.0 mi North 3.5 mph - N/A   Clear
7:15 PM 55.6 °F - 22.1 °F 27% 30.17 in 10.0 mi Calm Calm - N/A   Clear
7:35 PM 58.3 °F - 24.8 °F 28% 30.17 in 10.0 mi Calm Calm - N/A   Clear
7:55 PM 58.1 °F - 23.4 °F 26% 30.18 in 10.0 mi Calm Calm - N/A   Clear
8:15 PM 57.2 °F - 24.3 °F 28% 30.18 in 10.0 mi Calm Calm - N/A   Clear
8:35 PM 52.5 °F - 21.4 °F 30% 30.18 in 10.0 mi Calm Calm - N/A   Clear
8:55 PM 54.0 °F - 22.8 °F 30% 30.18 in 10.0 mi Calm Calm - N/A   Clear
9:15 PM 51.8 °F - 21.4 °F 30% 30.18 in 10.0 mi Calm Calm - N/A   Clear
9:35 PM 46.4 °F - 18.5 °F 33% 30.19 in 10.0 mi Calm Calm - N/A   Clear
9:55 PM 52.9 °F - 22.8 °F 31% 30.19 in 10.0 mi WNW 3.5 mph - N/A   Clear
10:15 PM 45.5 °F 41.3 °F 19.4 °F 35% 30.20 in 10.0 mi North 8.1 mph - N/A   Clear
10:35 PM 47.1 °F - 20.1 °F 34% 30.21 in 10.0 mi NNW 8.1 mph - N/A   Clear
10:55 PM 49.6 °F - 22.3 °F 34% 30.21 in 10.0 mi WNW 6.9 mph - N/A   Clear
11:15 PM 49.3 °F - 22.5 °F 35% 30.22 in 10.0 mi NE 5.8 mph - N/A   Clear
11:35 PM 46.9 °F - 20.7 °F 35% 30.23 in 10.0 mi North 6.9 mph - N/A   Clear
11:55 PM 46.8 °F - 20.7 °F 36% 30.23 in 10.0 mi Calm Calm - N/A   Clear